"Time","Value","Approval","myLocation"
"2023-05-06 00:00",15.3139718666836,"Working","OW436"
"2023-05-06 01:00",15.3179714865036,"Working","OW436"
"2023-05-06 02:00",15.3219711063237,"Working","OW436"
"2023-05-06 03:00",15.3279707261437,"Working","OW436"
"2023-05-06 04:00",15.3319703459638,"Working","OW436"
"2023-05-06 05:00",15.3359699657838,"Working","OW436"
"2023-05-06 06:00",15.3349695856039,"Working","OW436"
"2023-05-06 07:00",15.3379692054239,"Working","OW436"
"2023-05-06 08:00",15.3379688252439,"Working","OW436"
"2023-05-06 09:00",15.337968445064,"Working","OW436"
"2023-05-06 10:00",15.338968064884,"Working","OW436"
"2023-05-06 11:00",15.3379676847041,"Working","OW436"
"2023-05-06 12:00",15.3389673045241,"Working","OW436"
"2023-05-06 13:00",15.3379669243442,"Working","OW436"
"2023-05-06 14:00",15.3389665441642,"Working","OW436"
"2023-05-06 15:00",15.3419661639843,"Working","OW436"
"2023-05-06 16:00",15.3439657838043,"Working","OW436"
"2023-05-06 17:00",15.3449654036244,"Working","OW436"
"2023-05-06 18:00",15.3459650234444,"Working","OW436"
"2023-05-06 19:00",15.3459646432645,"Working","OW436"
"2023-05-06 20:00",15.3459642630845,"Working","OW436"
"2023-05-06 21:00",15.3449638829046,"Working","OW436"
"2023-05-06 22:00",15.3479635027246,"Working","OW436"
"2023-05-06 23:00",15.3499631225447,"Working","OW436"
"2023-05-07 00:00",15.3499627423647,"Working","OW436"
"2023-05-07 01:00",15.3529623621848,"Working","OW436"
"2023-05-07 02:00",15.3569619820048,"Working","OW436"
"2023-05-07 03:00",15.3579616018249,"Working","OW436"
"2023-05-07 04:00",15.3619612216449,"Working","OW436"
"2023-05-07 05:00",15.361960841465,"Working","OW436"
"2023-05-07 06:00",15.362960461285,"Working","OW436"
"2023-05-07 07:00",15.3659600811051,"Working","OW436"
"2023-05-07 08:00",15.3659597009251,"Working","OW436"
"2023-05-07 09:00",15.3679593207452,"Working","OW436"
"2023-05-07 10:00",15.3689589405652,"Working","OW436"
"2023-05-07 11:00",15.3699585603852,"Working","OW436"
"2023-05-07 12:00",15.3709581802053,"Working","OW436"
"2023-05-07 13:00",15.3709578000253,"Working","OW436"
"2023-05-07 14:00",15.3739574198454,"Working","OW436"
"2023-05-07 15:00",15.3789570396654,"Working","OW436"
"2023-05-07 16:00",15.3809566594855,"Working","OW436"
"2023-05-07 17:00",15.3799562793055,"Working","OW436"
"2023-05-07 18:00",15.3789558991256,"Working","OW436"
"2023-05-07 19:00",15.3799555189456,"Working","OW436"
"2023-05-07 20:00",15.3789551387657,"Working","OW436"
"2023-05-07 21:00",15.3799547585857,"Working","OW436"
"2023-05-07 22:00",15.3829543784058,"Working","OW436"
"2023-05-07 23:00",15.3819539982258,"Working","OW436"
"2023-05-08 00:00",15.3809536180459,"Working","OW436"
"2023-05-08 01:00",15.3809532378659,"Working","OW436"
"2023-05-08 02:00",15.378952857686,"Working","OW436"
"2023-05-08 03:00",15.377952477506,"Working","OW436"
"2023-05-08 04:00",15.3789520973261,"Working","OW436"
"2023-05-08 05:00",15.3799517171461,"Working","OW436"
"2023-05-08 06:00",15.3799513369662,"Working","OW436"
"2023-05-08 07:00",15.3799509567862,"Working","OW436"
"2023-05-08 08:00",15.3799505766063,"Working","OW436"
"2023-05-08 09:00",15.3789501964263,"Working","OW436"
"2023-05-08 10:00",15.3789498162464,"Working","OW436"
"2023-05-08 11:00",15.3779494360664,"Working","OW436"
"2023-05-08 12:00",15.3769490558865,"Working","OW436"
"2023-05-08 13:00",15.3789486757065,"Working","OW436"
"2023-05-08 14:00",15.3799482955265,"Working","OW436"
"2023-05-08 15:00",15.3789479153466,"Working","OW436"
"2023-05-08 16:00",15.3789475351666,"Working","OW436"
"2023-05-08 17:00",15.3749471549867,"Working","OW436"
"2023-05-08 18:00",15.3729467748067,"Working","OW436"
"2023-05-08 19:00",15.3719463946268,"Working","OW436"
"2023-05-08 20:00",15.3709460144468,"Working","OW436"
"2023-05-08 21:00",15.3689456342669,"Working","OW436"
"2023-05-08 22:00",15.3689452540869,"Working","OW436"
"2023-05-08 23:00",15.366944873907,"Working","OW436"
"2023-05-09 00:00",15.366944493727,"Working","OW436"
"2023-05-09 01:00",15.3669441135471,"Working","OW436"
"2023-05-09 02:00",15.3669437333671,"Working","OW436"
"2023-05-09 03:00",15.3699433531872,"Working","OW436"
"2023-05-09 04:00",15.3749429730072,"Working","OW436"
"2023-05-09 05:00",15.3789425928273,"Working","OW436"
"2023-05-09 06:00",15.3819422126473,"Working","OW436"
"2023-05-09 07:00",15.3859418324674,"Working","OW436"
"2023-05-09 08:00",15.3889414522874,"Working","OW436"
"2023-05-09 09:00",15.3909410721075,"Working","OW436"
"2023-05-09 10:00",15.3969406919275,"Working","OW436"
"2023-05-09 11:00",15.4019403117476,"Working","OW436"
"2023-05-09 12:00",15.4059399315676,"Working","OW436"
"2023-05-09 13:00",15.4109395513877,"Working","OW436"
"2023-05-09 14:00",15.4159391712077,"Working","OW436"
"2023-05-09 15:00",15.4209387910278,"Working","OW436"
"2023-05-09 16:00",15.4229384108478,"Working","OW436"
"2023-05-09 17:00",15.4229380306678,"Working","OW436"
"2023-05-09 18:00",15.4239376504879,"Working","OW436"
"2023-05-09 19:00",15.4249372703079,"Working","OW436"
"2023-05-09 20:00",15.422936890128,"Working","OW436"
"2023-05-09 21:00",15.425936509948,"Working","OW436"
"2023-05-09 22:00",15.4209361297681,"Working","OW436"
"2023-05-09 23:00",15.4209357495881,"Working","OW436"
"2023-05-10 00:00",15.4149353694082,"Working","OW436"
"2023-05-10 01:00",15.4139349892282,"Working","OW436"
"2023-05-10 02:00",15.4159346090483,"Working","OW436"
"2023-05-10 03:00",15.4189342288683,"Working","OW436"
"2023-05-10 04:00",15.4209338486884,"Working","OW436"
"2023-05-10 05:00",15.4239334685084,"Working","OW436"
"2023-05-10 06:00",15.4209330883285,"Working","OW436"
"2023-05-10 07:00",15.4219327081485,"Working","OW436"
"2023-05-10 08:00",15.4219323279686,"Working","OW436"
"2023-05-10 09:00",15.4219319477886,"Working","OW436"
"2023-05-10 10:00",15.4219315676087,"Working","OW436"
"2023-05-10 11:00",15.4239311874287,"Working","OW436"
"2023-05-10 12:00",15.4239308072488,"Working","OW436"
"2023-05-10 13:00",15.4219304270688,"Working","OW436"
"2023-05-10 14:00",15.4239300468889,"Working","OW436"
"2023-05-10 15:00",15.4239296667089,"Working","OW436"
"2023-05-10 16:00",15.422929286529,"Working","OW436"
"2023-05-10 17:00",15.419928906349,"Working","OW436"
"2023-05-10 18:00",15.4199285261691,"Working","OW436"
"2023-05-10 19:00",15.4189281459891,"Working","OW436"
"2023-05-10 20:00",15.4159277658091,"Working","OW436"
"2023-05-10 21:00",15.4119273856292,"Working","OW436"
"2023-05-10 22:00",15.4099270054492,"Working","OW436"
"2023-05-10 23:00",15.4059266252693,"Working","OW436"
"2023-05-11 00:00",15.4049262450893,"Working","OW436"
"2023-05-11 01:00",15.4029258649094,"Working","OW436"
"2023-05-11 02:00",15.4029254847294,"Working","OW436"
"2023-05-11 03:00",15.4049251045495,"Working","OW436"
"2023-05-11 04:00",15.4089247243695,"Working","OW436"
"2023-05-11 05:00",15.4149243441896,"Working","OW436"
"2023-05-11 06:00",15.4179239640096,"Working","OW436"
"2023-05-11 07:00",15.4219235838297,"Working","OW436"
"2023-05-11 08:00",15.4249232036497,"Working","OW436"
"2023-05-11 09:00",15.4279228234698,"Working","OW436"
"2023-05-11 10:00",15.4319224432898,"Working","OW436"
"2023-05-11 11:00",15.4339220631099,"Working","OW436"
"2023-05-11 12:00",15.4379216829299,"Working","OW436"
"2023-05-11 13:00",15.44092130275,"Working","OW436"
"2023-05-11 14:00",15.44892092257,"Working","OW436"
"2023-05-11 15:00",15.4529205423901,"Working","OW436"
"2023-05-11 16:00",15.4559201622101,"Working","OW436"
"2023-05-11 17:00",15.4579197820302,"Working","OW436"
"2023-05-11 18:00",15.4579194018502,"Working","OW436"
"2023-05-11 19:00",15.4569190216703,"Working","OW436"
"2023-05-11 20:00",15.4549186414903,"Working","OW436"
"2023-05-11 21:00",15.4529182613104,"Working","OW436"
"2023-05-11 22:00",15.4499178811304,"Working","OW436"
"2023-05-11 23:00",15.4469175009504,"Working","OW436"
"2023-05-12 00:00",15.4459171207705,"Working","OW436"
"2023-05-12 01:00",15.4439167405905,"Working","OW436"
"2023-05-12 02:00",15.4439163604106,"Working","OW436"
"2023-05-12 03:00",15.4459159802306,"Working","OW436"
"2023-05-12 04:00",15.4489156000507,"Working","OW436"
"2023-05-12 05:00",15.4539152198707,"Working","OW436"
"2023-05-12 06:00",15.4579148396908,"Working","OW436"
"2023-05-12 07:00",15.4609144595108,"Working","OW436"
"2023-05-12 08:00",15.4679140793309,"Working","OW436"
"2023-05-12 09:00",15.4709136991509,"Working","OW436"
"2023-05-12 10:00",15.473913318971,"Working","OW436"
"2023-05-12 11:00",15.478912938791,"Working","OW436"
"2023-05-12 12:00",15.4799125586111,"Working","OW436"
"2023-05-12 13:00",15.4829121784311,"Working","OW436"
"2023-05-12 14:00",15.4869117982512,"Working","OW436"
"2023-05-12 15:00",15.4909114180712,"Working","OW436"
"2023-05-12 16:00",15.4929110378913,"Working","OW436"
"2023-05-12 17:00",15.4959106577113,"Working","OW436"
"2023-05-12 18:00",15.4969102775314,"Working","OW436"
"2023-05-12 19:00",15.4969098973514,"Working","OW436"
"2023-05-12 20:00",15.4959095171715,"Working","OW436"
"2023-05-12 21:00",15.4909091369915,"Working","OW436"
"2023-05-12 22:00",15.4899087568116,"Working","OW436"
"2023-05-12 23:00",15.4859083766316,"Working","OW436"
"2023-05-13 00:00",15.4829079964517,"Working","OW436"
"2023-05-13 01:00",15.4809076162717,"Working","OW436"
"2023-05-13 02:00",15.4819072360918,"Working","OW436"
"2023-05-13 03:00",15.4809068559118,"Working","OW436"
"2023-05-13 04:00",15.4849064757318,"Working","OW436"
"2023-05-13 05:00",15.4879060955519,"Working","OW436"
"2023-05-13 06:00",15.4909057153719,"Working","OW436"
"2023-05-13 07:00",15.494905335192,"Working","OW436"
"2023-05-13 08:00",15.499904955012,"Working","OW436"
"2023-05-13 09:00",15.5039045748321,"Working","OW436"
"2023-05-13 10:00",15.5029041946521,"Working","OW436"
"2023-05-13 11:00",15.5049038144722,"Working","OW436"
"2023-05-13 12:00",15.5089034342922,"Working","OW436"
"2023-05-13 13:00",15.5119030541123,"Working","OW436"
"2023-05-13 14:00",15.5139026739323,"Working","OW436"
"2023-05-13 15:00",15.5139022937524,"Working","OW436"
"2023-05-13 16:00",15.5149019135724,"Working","OW436"
"2023-05-13 17:00",15.5159015333925,"Working","OW436"
"2023-05-13 18:00",15.5139011532125,"Working","OW436"
"2023-05-13 19:00",15.5119007730326,"Working","OW436"
"2023-05-13 20:00",15.5089003928526,"Working","OW436"
"2023-05-13 21:00",15.5019000126727,"Working","OW436"
"2023-05-13 22:00",15.4968996324927,"Working","OW436"
"2023-05-13 23:00",15.4888992523128,"Working","OW436"
"2023-05-14 00:00",15.4828988721328,"Working","OW436"
"2023-05-14 01:00",15.4768984919529,"Working","OW436"
"2023-05-14 02:00",15.4708981117729,"Working","OW436"
"2023-05-14 03:00",15.466897731593,"Working","OW436"
"2023-05-14 04:00",15.468897351413,"Working","OW436"
"2023-05-14 05:00",15.4708969712331,"Working","OW436"
"2023-05-14 06:00",15.4698965910531,"Working","OW436"
"2023-05-14 07:00",15.4698962108731,"Working","OW436"
"2023-05-14 08:00",15.4718958306932,"Working","OW436"
"2023-05-14 09:00",15.4748954505132,"Working","OW436"
"2023-05-14 10:00",15.4748950703333,"Working","OW436"
"2023-05-14 11:00",15.4728946901533,"Working","OW436"
"2023-05-14 12:00",15.4708943099734,"Working","OW436"
"2023-05-14 13:00",15.4668939297934,"Working","OW436"
"2023-05-14 14:00",15.4668935496135,"Working","OW436"
"2023-05-14 15:00",15.4678931694335,"Working","OW436"
"2023-05-14 16:00",15.4648927892536,"Working","OW436"
"2023-05-14 17:00",15.4618924090736,"Working","OW436"
"2023-05-14 18:00",15.4558920288937,"Working","OW436"
"2023-05-14 19:00",15.4498916487137,"Working","OW436"
"2023-05-14 20:00",15.4448912685338,"Working","OW436"
"2023-05-14 21:00",15.4408908883538,"Working","OW436"
"2023-05-14 22:00",15.4368905081739,"Working","OW436"
"2023-05-14 23:00",15.4298901279939,"Working","OW436"
"2023-05-15 00:00",15.426889747814,"Working","OW436"
"2023-05-15 01:00",15.424889367634,"Working","OW436"
"2023-05-15 02:00",15.4238889874541,"Working","OW436"
"2023-05-15 03:00",15.4248886072741,"Working","OW436"
"2023-05-15 04:00",15.4288882270942,"Working","OW436"
"2023-05-15 05:00",15.4358878469142,"Working","OW436"
"2023-05-15 06:00",15.4368874667343,"Working","OW436"
"2023-05-15 07:00",15.4378870865543,"Working","OW436"
"2023-05-15 08:00",15.4418867063744,"Working","OW436"
"2023-05-15 09:00",15.4448863261944,"Working","OW436"
"2023-05-15 10:00",15.4458859460144,"Working","OW436"
"2023-05-15 11:00",15.4448855658345,"Working","OW436"
"2023-05-15 12:00",15.4458851856545,"Working","OW436"
"2023-05-15 13:00",15.4468848054746,"Working","OW436"
"2023-05-15 14:00",15.4478844252946,"Working","OW436"
"2023-05-15 15:00",15.4488840451147,"Working","OW436"
"2023-05-15 16:00",15.4488836649347,"Working","OW436"
"2023-05-15 17:00",15.4478832847548,"Working","OW436"
"2023-05-15 18:00",15.4478829045748,"Working","OW436"
"2023-05-15 19:00",15.4488825243949,"Working","OW436"
"2023-05-15 20:00",15.4458821442149,"Working","OW436"
"2023-05-15 21:00",15.444881764035,"Working","OW436"
"2023-05-15 22:00",15.441881383855,"Working","OW436"
"2023-05-15 23:00",15.4368810036751,"Working","OW436"
"2023-05-16 00:00",15.4338806234951,"Working","OW436"
"2023-05-16 01:00",15.4328802433152,"Working","OW436"
"2023-05-16 02:00",15.4298798631352,"Working","OW436"
"2023-05-16 03:00",15.4308794829553,"Working","OW436"
"2023-05-16 04:00",15.4368791027753,"Working","OW436"
"2023-05-16 05:00",15.4438787225954,"Working","OW436"
"2023-05-16 06:00",15.4498783424154,"Working","OW436"
"2023-05-16 07:00",15.4558779622355,"Working","OW436"
"2023-05-16 08:00",15.4678775820555,"Working","OW436"
"2023-05-16 09:00",15.4748772018756,"Working","OW436"
"2023-05-16 10:00",15.4888768216956,"Working","OW436"
"2023-05-16 11:00",15.4968764415157,"Working","OW436"
"2023-05-16 12:00",15.4998760613357,"Working","OW436"
"2023-05-16 13:00",15.5048756811557,"Working","OW436"
"2023-05-16 14:00",15.5128753009758,"Working","OW436"
"2023-05-16 15:00",15.5138749207958,"Working","OW436"
"2023-05-16 16:00",15.5158745406159,"Working","OW436"
"2023-05-16 17:00",15.5198741604359,"Working","OW436"
"2023-05-16 18:00",15.522873780256,"Working","OW436"
"2023-05-16 19:00",15.523873400076,"Working","OW436"
"2023-05-16 20:00",15.5208730198961,"Working","OW436"
"2023-05-16 21:00",15.5158726397161,"Working","OW436"
"2023-05-16 22:00",15.5118722595362,"Working","OW436"
"2023-05-16 23:00",15.5028718793562,"Working","OW436"
"2023-05-17 00:00",15.4978714991763,"Working","OW436"
"2023-05-17 01:00",15.4928711189963,"Working","OW436"
"2023-05-17 02:00",15.4908707388164,"Working","OW436"
"2023-05-17 03:00",15.4948703586364,"Working","OW436"
"2023-05-17 04:00",15.4968699784565,"Working","OW436"
"2023-05-17 05:00",15.5028695982765,"Working","OW436"
"2023-05-17 06:00",15.5068692180966,"Working","OW436"
"2023-05-17 07:00",15.5108688379166,"Working","OW436"
"2023-05-17 08:00",15.5018684577367,"Working","OW436"
"2023-05-17 09:00",15.5078680775567,"Working","OW436"
"2023-05-17 10:00",15.5098676973768,"Working","OW436"
"2023-05-17 11:00",15.5098673171968,"Working","OW436"
"2023-05-17 12:00",15.5088669370169,"Working","OW436"
"2023-05-17 13:00",15.5108665568369,"Working","OW436"
"2023-05-17 14:00",15.513866176657,"Working","OW436"
"2023-05-17 15:00",15.512865796477,"Working","OW436"
"2023-05-17 16:00",15.510865416297,"Working","OW436"
"2023-05-17 17:00",15.5058650361171,"Working","OW436"
"2023-05-17 18:00",15.5018646559371,"Working","OW436"
"2023-05-17 19:00",15.4988642757572,"Working","OW436"
"2023-05-17 20:00",15.4938638955772,"Working","OW436"
"2023-05-17 21:00",15.4888635153973,"Working","OW436"
"2023-05-17 22:00",15.4818631352173,"Working","OW436"
"2023-05-17 23:00",15.4728627550374,"Working","OW436"
"2023-05-18 00:00",15.4688623748574,"Working","OW436"
"2023-05-18 01:00",15.4628619946775,"Working","OW436"
"2023-05-18 02:00",15.4588616144975,"Working","OW436"
"2023-05-18 03:00",15.4588612343176,"Working","OW436"
"2023-05-18 04:00",15.4598608541376,"Working","OW436"
"2023-05-18 05:00",15.4658604739577,"Working","OW436"
"2023-05-18 06:00",15.4688600937777,"Working","OW436"
"2023-05-18 07:00",15.4738597135978,"Working","OW436"
"2023-05-18 08:00",15.4768593334178,"Working","OW436"
"2023-05-18 09:00",15.4788589532379,"Working","OW436"
"2023-05-18 10:00",15.4828585730579,"Working","OW436"
"2023-05-18 11:00",15.484858192878,"Working","OW436"
"2023-05-18 12:00",15.486857812698,"Working","OW436"
"2023-05-18 13:00",15.4888574325181,"Working","OW436"
"2023-05-18 14:00",15.4938570523381,"Working","OW436"
"2023-05-18 15:00",15.4998566721582,"Working","OW436"
"2023-05-18 16:00",15.5028562919782,"Working","OW436"
"2023-05-18 17:00",15.5048559117983,"Working","OW436"
"2023-05-18 18:00",15.5068555316183,"Working","OW436"
"2023-05-18 19:00",15.5088551514383,"Working","OW436"
"2023-05-18 20:00",15.5098547712584,"Working","OW436"
"2023-05-18 21:00",15.5138543910784,"Working","OW436"
"2023-05-18 22:00",15.5128540108985,"Working","OW436"
"2023-05-18 23:00",15.5158536307185,"Working","OW436"
"2023-05-19 00:00",15.5148532505386,"Working","OW436"
"2023-05-19 01:00",15.5188528703586,"Working","OW436"
"2023-05-19 02:00",15.5208524901787,"Working","OW436"
"2023-05-19 03:00",15.5258521099987,"Working","OW436"
"2023-05-19 04:00",15.5318517298188,"Working","OW436"
"2023-05-19 05:00",15.5408513496388,"Working","OW436"
"2023-05-19 06:00",15.5458509694589,"Working","OW436"
"2023-05-19 07:00",15.5538505892789,"Working","OW436"
"2023-05-19 08:00",15.560850209099,"Working","OW436"
"2023-05-19 09:00",15.565849828919,"Working","OW436"
"2023-05-19 10:00",15.5728494487391,"Working","OW436"
"2023-05-19 11:00",15.5768490685591,"Working","OW436"
"2023-05-19 12:00",15.5828486883792,"Working","OW436"
"2023-05-19 13:00",15.5888483081992,"Working","OW436"
"2023-05-19 14:00",15.5968479280193,"Working","OW436"
"2023-05-19 15:00",15.6008475478393,"Working","OW436"
"2023-05-19 16:00",15.6028471676594,"Working","OW436"
"2023-05-19 17:00",15.6058467874794,"Working","OW436"
"2023-05-19 18:00",15.6048464072995,"Working","OW436"
"2023-05-19 19:00",15.6028460271195,"Working","OW436"
"2023-05-19 20:00",15.5988456469396,"Working","OW436"
"2023-05-19 21:00",15.5958452667596,"Working","OW436"
"2023-05-19 22:00",15.5928448865796,"Working","OW436"
"2023-05-19 23:00",15.5868445063997,"Working","OW436"
"2023-05-20 00:00",15.5808441262197,"Working","OW436"
"2023-05-20 01:00",15.5748437460398,"Working","OW436"
"2023-05-20 02:00",15.5708433658598,"Working","OW436"
"2023-05-20 03:00",15.5698429856799,"Working","OW436"
"2023-05-20 04:00",15.5718426054999,"Working","OW436"
"2023-05-20 05:00",15.57684222532,"Working","OW436"
"2023-05-20 06:00",15.57884184514,"Working","OW436"
"2023-05-20 07:00",15.5818414649601,"Working","OW436"
"2023-05-20 08:00",15.5878410847801,"Working","OW436"
"2023-05-20 09:00",15.5938407046002,"Working","OW436"
"2023-05-20 10:00",15.5938403244202,"Working","OW436"
"2023-05-20 11:00",15.5978399442403,"Working","OW436"
"2023-05-20 12:00",15.6008395640603,"Working","OW436"
"2023-05-20 13:00",15.6048391838804,"Working","OW436"
"2023-05-20 14:00",15.6078388037004,"Working","OW436"
"2023-05-20 15:00",15.6148384235205,"Working","OW436"
"2023-05-20 16:00",15.6148380433405,"Working","OW436"
"2023-05-20 17:00",15.6138376631606,"Working","OW436"
"2023-05-20 18:00",15.6138372829806,"Working","OW436"
"2023-05-20 19:00",15.6108369028007,"Working","OW436"
"2023-05-20 20:00",15.6088365226207,"Working","OW436"
"2023-05-20 21:00",15.6048361424408,"Working","OW436"
"2023-05-20 22:00",15.6008357622608,"Working","OW436"
"2023-05-20 23:00",15.5948353820809,"Working","OW436"
"2023-05-21 00:00",15.5888350019009,"Working","OW436"
"2023-05-21 01:00",15.5868346217209,"Working","OW436"
"2023-05-21 02:00",15.585834241541,"Working","OW436"
"2023-05-21 03:00",15.587833861361,"Working","OW436"
"2023-05-21 04:00",15.5878334811811,"Working","OW436"
"2023-05-21 05:00",15.5928331010011,"Working","OW436"
"2023-05-21 06:00",15.5978327208212,"Working","OW436"
"2023-05-21 07:00",15.6048323406412,"Working","OW436"
"2023-05-21 08:00",15.6098319604613,"Working","OW436"
"2023-05-21 09:00",15.6128315802813,"Working","OW436"
"2023-05-21 10:00",15.6128312001014,"Working","OW436"
"2023-05-21 11:00",15.6148308199214,"Working","OW436"
"2023-05-21 12:00",15.6168304397415,"Working","OW436"
"2023-05-21 13:00",15.6228300595615,"Working","OW436"
"2023-05-21 14:00",15.6278296793816,"Working","OW436"
"2023-05-21 15:00",15.6308292992016,"Working","OW436"
"2023-05-21 16:00",15.6328289190217,"Working","OW436"
"2023-05-21 17:00",15.6388285388417,"Working","OW436"
"2023-05-21 18:00",15.6388281586618,"Working","OW436"
"2023-05-21 19:00",15.6378277784818,"Working","OW436"
"2023-05-21 20:00",15.6368273983019,"Working","OW436"
"2023-05-21 21:00",15.6348270181219,"Working","OW436"
"2023-05-21 22:00",15.634826637942,"Working","OW436"
"2023-05-21 23:00",15.632826257762,"Working","OW436"
"2023-05-22 00:00",15.6298258775821,"Working","OW436"
"2023-05-22 01:00",15.6268254974021,"Working","OW436"
"2023-05-22 02:00",15.6248251172222,"Working","OW436"
"2023-05-22 03:00",15.6278247370422,"Working","OW436"
"2023-05-22 04:00",15.6338243568622,"Working","OW436"
"2023-05-22 05:00",15.6368239766823,"Working","OW436"
"2023-05-22 06:00",15.6378235965023,"Working","OW436"
"2023-05-22 07:00",15.6388232163224,"Working","OW436"
"2023-05-22 08:00",15.6408228361424,"Working","OW436"
"2023-05-22 09:00",15.6418224559625,"Working","OW436"
"2023-05-22 10:00",15.6428220757825,"Working","OW436"
"2023-05-22 11:00",15.6448216956026,"Working","OW436"
"2023-05-22 12:00",15.6448213154226,"Working","OW436"
"2023-05-22 13:00",15.6458209352427,"Working","OW436"
"2023-05-22 14:00",15.6468205550627,"Working","OW436"
"2023-05-22 15:00",15.6478201748828,"Working","OW436"
"2023-05-22 16:00",15.6478197947028,"Working","OW436"
"2023-05-22 17:00",15.6448194145229,"Working","OW436"
"2023-05-22 18:00",15.6448190343429,"Working","OW436"
"2023-05-22 19:00",15.648818654163,"Working","OW436"
"2023-05-22 20:00",15.651818273983,"Working","OW436"
"2023-05-22 21:00",15.6538178938031,"Working","OW436"
"2023-05-22 22:00",15.6538175136231,"Working","OW436"
"2023-05-22 23:00",15.6548171334432,"Working","OW436"
"2023-05-23 00:00",15.6518167532632,"Working","OW436"
"2023-05-23 01:00",15.6528163730833,"Working","OW436"
"2023-05-23 02:00",15.6538159929033,"Working","OW436"
"2023-05-23 03:00",15.6528156127234,"Working","OW436"
"2023-05-23 04:00",15.6558152325434,"Working","OW436"
"2023-05-23 05:00",15.6568148523635,"Working","OW436"
"2023-05-23 06:00",15.6618144721835,"Working","OW436"
"2023-05-23 07:00",15.6668140920035,"Working","OW436"
"2023-05-23 08:00",15.6638137118236,"Working","OW436"
"2023-05-23 09:00",15.6618133316436,"Working","OW436"
"2023-05-23 10:00",15.6608129514637,"Working","OW436"
"2023-05-23 11:00",15.6618125712837,"Working","OW436"
"2023-05-23 12:00",15.6628121911038,"Working","OW436"
"2023-05-23 13:00",15.6628118109238,"Working","OW436"
"2023-05-23 14:00",15.6648114307439,"Working","OW436"
"2023-05-23 15:00",15.6648110505639,"Working","OW436"
"2023-05-23 16:00",15.660810670384,"Working","OW436"
"2023-05-23 17:00",15.662810290204,"Working","OW436"
"2023-05-23 18:00",15.6608099100241,"Working","OW436"
"2023-05-23 19:00",15.6608095298441,"Working","OW436"
"2023-05-23 20:00",15.6618091496642,"Working","OW436"
"2023-05-23 21:00",15.6628087694842,"Working","OW436"
"2023-05-23 22:00",15.6608083893043,"Working","OW436"
"2023-05-23 23:00",15.6598080091243,"Working","OW436"
"2023-05-24 00:00",15.6588076289444,"Working","OW436"
"2023-05-24 01:00",15.6558072487644,"Working","OW436"
"2023-05-24 02:00",15.6538068685845,"Working","OW436"
"2023-05-24 03:00",15.6538064884045,"Working","OW436"